FRS96 EDDH-EDXW

Flight info

Callsign FRS96
Flight time 1h 8m
Altitude 5500
Route DCT EDHF DCT EDXJ DCT
Aircraft C208/L-DGY/L

Departure

Time 2026-04-26 16:41
Airport Hamburg Helmut Schmidt Airport (EDDH)

Arrival

Time 2026-04-26 17:50
Airport Westerland Sylt Airport (EDXW)
Time Latitude Longitude Altitude Speed Heading
2026-04-26 16:31 53.62701 9.98800 41 ft 0 kts 60°
2026-04-26 16:36 53.62708 9.98798 46 ft 5 kts 264°
2026-04-26 16:37 53.62724 9.98724 46 ft 6 kts 322°
2026-04-26 16:37 53.62779 9.98734 46 ft 15 kts 45°
2026-04-26 16:37 53.62897 9.98966 46 ft 39 kts 46°
2026-04-26 16:37 53.63012 9.99203 46 ft 23 kts 54°
2026-04-26 16:38 53.63082 9.99368 46 ft 10 kts 50°
2026-04-26 16:38 53.63088 9.99381 46 ft 0 kts 57°
2026-04-26 16:38 53.63094 9.99375 46 ft 9 kts 279°
2026-04-26 16:38 53.63141 9.99314 46 ft 11 kts 19°
2026-04-26 16:39 53.63147 9.99317 46 ft 0 kts 13°
2026-04-26 16:40 53.63286 9.99346 48 ft 30 kts 347°
2026-04-26 16:40 53.63602 9.99114 88 ft 64 kts 333°
2026-04-26 16:41 53.64041 9.98791 287 ft 70 kts 332°
2026-04-26 16:41 53.64485 9.98457 543 ft 67 kts 331°
2026-04-26 16:41 53.64989 9.98485 802 ft 77 kts
2026-04-26 16:41 53.65507 9.98705 1140 ft 77 kts
2026-04-26 16:42 53.66046 9.98879 1450 ft 77 kts 358°
2026-04-26 16:42 53.66580 9.99038 1721 ft 85 kts
2026-04-26 16:42 53.67166 9.99329 1970 ft 89 kts 360°
2026-04-26 16:42 53.67809 9.99596 2010 ft 102 kts
2026-04-26 16:43 53.68514 9.99825 2016 ft 105 kts 358°
2026-04-26 16:43 53.69245 10.00035 2006 ft 108 kts 358°
2026-04-26 16:43 53.69985 10.00240 2006 ft 108 kts 360°
2026-04-26 16:43 53.70726 10.00465 2008 ft 108 kts
2026-04-26 16:44 53.71474 10.00664 2000 ft 109 kts 359°
2026-04-26 16:44 53.72233 10.00876 2001 ft 111 kts
2026-04-26 16:44 53.72999 10.01127 2007 ft 113 kts 359°
2026-04-26 16:44 53.73773 10.01365 2002 ft 112 kts
2026-04-26 16:45 53.74524 10.01597 1989 ft 109 kts
2026-04-26 16:45 53.75158 10.01363 1987 ft 88 kts 316°
2026-04-26 16:45 53.75648 10.00738 1997 ft 92 kts 318°
2026-04-26 16:45 53.76182 10.00058 2000 ft 95 kts 319°
2026-04-26 16:46 53.76696 9.99403 2003 ft 91 kts 318°
2026-04-26 16:46 53.77191 9.98766 2000 ft 89 kts 318°
2026-04-26 16:46 53.77674 9.98129 2001 ft 87 kts 318°
2026-04-26 16:46 53.78158 9.97529 1990 ft 86 kts 318°
2026-04-26 16:47 53.78631 9.96914 1994 ft 86 kts 318°
2026-04-26 16:47 53.79130 9.96335 1999 ft 88 kts 322°
2026-04-26 16:47 53.79659 9.95771 2010 ft 91 kts 321°
2026-04-26 16:47 53.80203 9.95224 1995 ft 91 kts 325°
2026-04-26 16:48 53.80764 9.94716 2004 ft 93 kts 325°
2026-04-26 16:48 53.81333 9.94212 2001 ft 91 kts 326°
2026-04-26 16:48 53.81873 9.93747 2085 ft 83 kts 325°
2026-04-26 16:48 53.82370 9.93328 2182 ft 77 kts 325°
2026-04-26 16:49 53.82863 9.92918 2191 ft 81 kts 326°
2026-04-26 16:49 53.83384 9.92490 2198 ft 85 kts 326°
2026-04-26 16:49 53.83914 9.92038 2196 ft 86 kts 325°
2026-04-26 16:49 53.84460 9.91596 2196 ft 88 kts 327°
2026-04-26 16:50 53.85006 9.91153 2198 ft 87 kts 326°
2026-04-26 16:50 53.85550 9.90700 2200 ft 89 kts 327°
2026-04-26 16:50 53.86115 9.90244 2195 ft 91 kts 326°
2026-04-26 16:50 53.86682 9.89763 2193 ft 91 kts 326°
2026-04-26 16:51 53.87138 9.89111 2200 ft 86 kts 307°
2026-04-26 16:51 53.87543 9.88348 2199 ft 88 kts 310°
2026-04-26 16:51 53.87953 9.87582 2202 ft 87 kts 308°
2026-04-26 16:51 53.88089 9.87315 2199 ft 86 kts 308°
2026-04-26 16:52 53.88495 9.86561 2206 ft 87 kts 309°
2026-04-26 16:52 53.88746 9.86028 2196 ft 87 kts 304°
2026-04-26 16:52 53.89220 9.84921 2191 ft 88 kts 306°
2026-04-26 16:52 53.89555 9.84066 2191 ft 87 kts 301°
2026-04-26 16:53 53.89883 9.83184 2193 ft 90 kts 303°
2026-04-26 16:53 53.90221 9.82308 2195 ft 88 kts 302°
2026-04-26 16:53 53.90537 9.81439 2195 ft 87 kts 300°
2026-04-26 16:53 53.90830 9.80572 2287 ft 80 kts 300°
2026-04-26 16:54 53.91085 9.79800 2442 ft 72 kts 301°
2026-04-26 16:54 53.91303 9.79090 2586 ft 65 kts 300°
2026-04-26 16:54 53.91474 9.78450 2721 ft 56 kts 300°
2026-04-26 16:54 53.91614 9.77888 2856 ft 47 kts 299°
2026-04-26 16:55 53.91719 9.77420 2983 ft 37 kts 298°
2026-04-26 16:55 53.91780 9.77055 3047 ft 33 kts 298°
2026-04-26 16:55 53.91856 9.76679 3161 ft 33 kts 298°
2026-04-26 16:55 53.91928 9.76309 3299 ft 38 kts 301°
2026-04-26 16:56 53.92276 9.75124 3313 ft 71 kts 301°
2026-04-26 16:56 53.92518 9.74329 3305 ft 79 kts 301°
2026-04-26 16:56 53.92776 9.73475 3303 ft 83 kts 301°
2026-04-26 16:57 53.93045 9.72589 3303 ft 85 kts 301°
2026-04-26 16:57 53.93313 9.71691 3304 ft 85 kts 300°
2026-04-26 16:57 53.93916 9.69907 3296 ft 86 kts 302°
2026-04-26 16:58 53.94207 9.69023 3294 ft 85 kts 303°
2026-04-26 16:58 53.94406 9.68451 3298 ft 84 kts 306°
2026-04-26 16:58 53.95166 9.66490 3297 ft 85 kts 305°
2026-04-26 16:59 53.95481 9.65646 3298 ft 84 kts 306°
2026-04-26 16:59 53.96132 9.63958 3298 ft 85 kts 306°
2026-04-26 17:00 53.96773 9.62282 3299 ft 84 kts 306°
2026-04-26 17:00 53.97465 9.60666 3302 ft 84 kts 308°
2026-04-26 17:00 53.97807 9.59860 3299 ft 84 kts 309°
2026-04-26 17:01 53.98157 9.59066 3303 ft 83 kts 314°
2026-04-26 17:01 53.98707 9.58764 3304 ft 85 kts 339°
2026-04-26 17:01 53.99276 9.58500 3307 ft 84 kts 333°
2026-04-26 17:01 53.99830 9.58190 3307 ft 85 kts 332°
2026-04-26 17:02 54.00385 9.57837 3310 ft 86 kts 333°
2026-04-26 17:02 54.00946 9.57495 3313 ft 86 kts 332°
2026-04-26 17:02 54.01506 9.57141 3307 ft 86 kts 332°
2026-04-26 17:02 54.02068 9.56788 3315 ft 86 kts 332°
2026-04-26 17:03 54.02632 9.56431 3306 ft 86 kts 332°
2026-04-26 17:03 54.03177 9.56022 3321 ft 86 kts 329°
2026-04-26 17:03 54.03727 9.55610 3311 ft 87 kts 329°
2026-04-26 17:03 54.04272 9.55186 3312 ft 86 kts 329°
2026-04-26 17:04 54.04819 9.54766 3315 ft 86 kts 329°
2026-04-26 17:04 54.05360 9.54327 3309 ft 87 kts 328°
2026-04-26 17:04 54.05911 9.53887 3308 ft 87 kts 328°
2026-04-26 17:04 54.06452 9.53443 3313 ft 87 kts 327°
2026-04-26 17:05 54.06981 9.52958 3309 ft 86 kts 326°
2026-04-26 17:05 54.07513 9.52484 3307 ft 86 kts 327°
2026-04-26 17:05 54.08028 9.51987 3303 ft 84 kts 326°
2026-04-26 17:05 54.08539 9.51499 3311 ft 85 kts 327°
2026-04-26 17:06 54.09056 9.51010 3301 ft 84 kts 326°
2026-04-26 17:06 54.09565 9.50528 3311 ft 83 kts 327°
2026-04-26 17:06 54.10071 9.50054 3311 ft 82 kts 326°
2026-04-26 17:06 54.10569 9.49572 3314 ft 83 kts 327°
2026-04-26 17:07 54.11079 9.49091 3311 ft 85 kts 327°
2026-04-26 17:07 54.11592 9.48609 3311 ft 84 kts 327°
2026-04-26 17:07 54.12098 9.48125 3313 ft 85 kts 326°
2026-04-26 17:07 54.12615 9.47634 3322 ft 85 kts 327°
2026-04-26 17:08 54.13133 9.47141 3317 ft 85 kts 327°
2026-04-26 17:08 54.13653 9.46651 3308 ft 86 kts 327°
2026-04-26 17:08 54.14175 9.46171 3306 ft 85 kts 327°
2026-04-26 17:08 54.14698 9.45688 3314 ft 86 kts 327°
2026-04-26 17:09 54.15227 9.45206 3306 ft 87 kts 328°
2026-04-26 17:09 54.15579 9.44884 3311 ft 86 kts 327°
2026-04-26 17:09 54.16279 9.44207 3308 ft 88 kts 327°
2026-04-26 17:09 54.16817 9.43715 3302 ft 87 kts 327°
2026-04-26 17:10 54.17340 9.43229 3303 ft 86 kts 327°
2026-04-26 17:10 54.17865 9.42737 3300 ft 86 kts 327°
2026-04-26 17:10 54.18386 9.42248 3296 ft 85 kts 327°
2026-04-26 17:10 54.18906 9.41759 3301 ft 85 kts 327°
2026-04-26 17:11 54.19428 9.41270 3298 ft 86 kts 327°
2026-04-26 17:11 54.19954 9.40777 3296 ft 87 kts 327°
2026-04-26 17:11 54.20487 9.40283 3298 ft 87 kts 328°
2026-04-26 17:11 54.21021 9.39791 3301 ft 87 kts 327°
2026-04-26 17:12 54.22093 9.38804 3296 ft 88 kts 327°
2026-04-26 17:12 54.22640 9.38309 3304 ft 90 kts 327°
2026-04-26 17:13 54.23746 9.37304 3306 ft 91 kts 327°
2026-04-26 17:13 54.24309 9.36796 3300 ft 91 kts 328°
2026-04-26 17:13 54.25436 9.35781 3301 ft 92 kts 327°
2026-04-26 17:14 54.25998 9.35267 3293 ft 92 kts 328°
2026-04-26 17:14 54.27123 9.34229 3301 ft 93 kts 328°
2026-04-26 17:14 54.27694 9.33700 3298 ft 91 kts 327°
2026-04-26 17:15 54.28771 9.32694 3295 ft 88 kts 328°
2026-04-26 17:15 54.29306 9.32199 3297 ft 87 kts 328°
2026-04-26 17:15 54.29838 9.31708 3297 ft 86 kts 328°
2026-04-26 17:16 54.30366 9.31214 3298 ft 86 kts 327°
2026-04-26 17:16 54.30894 9.30728 3294 ft 86 kts 328°
2026-04-26 17:16 54.31425 9.30238 3297 ft 87 kts 328°
2026-04-26 17:16 54.31961 9.29748 3298 ft 88 kts 328°
2026-04-26 17:17 54.32502 9.29250 3301 ft 88 kts 327°
2026-04-26 17:17 54.33043 9.28757 3295 ft 88 kts 328°
2026-04-26 17:17 54.33579 9.28260 3295 ft 87 kts 328°
2026-04-26 17:17 54.34116 9.27768 3296 ft 88 kts 328°
2026-04-26 17:18 54.34652 9.27267 3294 ft 88 kts 328°
2026-04-26 17:18 54.35189 9.26772 3293 ft 87 kts 328°
2026-04-26 17:18 54.35724 9.26275 3296 ft 88 kts 328°
2026-04-26 17:18 54.36266 9.25766 3298 ft 89 kts 328°
2026-04-26 17:19 54.37179 9.24934 3304 ft 90 kts 329°
2026-04-26 17:19 54.37732 9.24427 3293 ft 90 kts 328°
2026-04-26 17:19 54.38463 9.23741 3295 ft 90 kts 328°
2026-04-26 17:20 54.38837 9.23400 3293 ft 90 kts 329°
2026-04-26 17:20 54.39203 9.23061 3294 ft 91 kts 328°
2026-04-26 17:20 54.39952 9.22375 3294 ft 91 kts 329°
2026-04-26 17:20 54.40510 9.21865 3295 ft 91 kts 328°
2026-04-26 17:21 54.41037 9.21385 3291 ft 90 kts 328°
2026-04-26 17:21 54.41590 9.20876 3294 ft 91 kts 328°
2026-04-26 17:21 54.42148 9.20366 3302 ft 92 kts 329°
2026-04-26 17:21 54.42714 9.19848 3294 ft 92 kts 328°
2026-04-26 17:22 54.43272 9.19330 3295 ft 91 kts 328°
2026-04-26 17:22 54.43835 9.18812 3301 ft 93 kts 329°
2026-04-26 17:22 54.44410 9.18289 3300 ft 94 kts 328°
2026-04-26 17:22 54.44985 9.17760 3298 ft 94 kts 329°
2026-04-26 17:23 54.45554 9.17229 3297 ft 93 kts 328°
2026-04-26 17:23 54.46111 9.16700 3297 ft 92 kts 329°
2026-04-26 17:23 54.46672 9.16175 3297 ft 91 kts 329°
2026-04-26 17:23 54.47232 9.15649 3294 ft 91 kts 328°
2026-04-26 17:24 54.47784 9.15125 3293 ft 90 kts 329°
2026-04-26 17:24 54.48328 9.14630 3294 ft 88 kts 330°
2026-04-26 17:24 54.48863 9.14122 3297 ft 88 kts 328°
2026-04-26 17:24 54.49397 9.13618 3300 ft 88 kts 328°
2026-04-26 17:25 54.49935 9.13109 3300 ft 88 kts 329°
2026-04-26 17:25 54.50477 9.12603 3298 ft 89 kts 328°
2026-04-26 17:25 54.51013 9.12102 3294 ft 87 kts 329°
2026-04-26 17:25 54.51544 9.11610 3296 ft 88 kts 328°
2026-04-26 17:26 54.52078 9.11116 3295 ft 86 kts 329°
2026-04-26 17:26 54.52611 9.10632 3292 ft 86 kts 329°
2026-04-26 17:26 54.53137 9.10152 3292 ft 86 kts 329°
2026-04-26 17:26 54.53671 9.09676 3292 ft 87 kts 330°
2026-04-26 17:27 54.54206 9.09191 3294 ft 87 kts 329°
2026-04-26 17:27 54.54734 9.08686 3295 ft 88 kts 329°
2026-04-26 17:27 54.55274 9.08197 3296 ft 88 kts 329°
2026-04-26 17:27 54.55820 9.07696 3297 ft 89 kts 329°
2026-04-26 17:28 54.56369 9.07194 3297 ft 89 kts 329°
2026-04-26 17:28 54.56910 9.06662 3298 ft 90 kts 328°
2026-04-26 17:28 54.57453 9.06129 3296 ft 90 kts 329°
2026-04-26 17:28 54.57998 9.05592 3295 ft 90 kts 328°
2026-04-26 17:29 54.58534 9.05024 3294 ft 90 kts 326°
2026-04-26 17:29 54.58885 9.04631 3301 ft 92 kts 326°
2026-04-26 17:29 54.59594 9.03798 3294 ft 92 kts 325°
2026-04-26 17:29 54.60135 9.03160 3219 ft 96 kts 324°
2026-04-26 17:30 54.60692 9.02490 3144 ft 99 kts 324°
2026-04-26 17:30 54.61257 9.01809 3070 ft 100 kts 324°
2026-04-26 17:30 54.61829 9.01122 2988 ft 100 kts 324°
2026-04-26 17:30 54.62399 9.00449 2925 ft 101 kts 324°
2026-04-26 17:31 54.62987 8.99764 2841 ft 102 kts 325°
2026-04-26 17:31 54.63591 8.99085 2762 ft 104 kts 326°
2026-04-26 17:31 54.64179 8.98348 2682 ft 105 kts 322°
2026-04-26 17:31 54.64755 8.97575 2603 ft 104 kts 322°
2026-04-26 17:32 54.65330 8.96810 2527 ft 104 kts 322°
2026-04-26 17:32 54.65903 8.96024 2447 ft 105 kts 322°
2026-04-26 17:32 54.66486 8.95255 2370 ft 105 kts 322°
2026-04-26 17:32 54.67065 8.94476 2287 ft 105 kts 322°
2026-04-26 17:33 54.67654 8.93711 2209 ft 107 kts 322°
2026-04-26 17:33 54.68235 8.92920 2134 ft 107 kts 321°
2026-04-26 17:33 54.68832 8.92139 2054 ft 108 kts 323°
2026-04-26 17:34 54.70002 8.90588 2003 ft 103 kts 323°
2026-04-26 17:34 54.70571 8.89855 1995 ft 102 kts 323°
2026-04-26 17:34 54.71128 8.89107 1995 ft 101 kts 322°
2026-04-26 17:34 54.71675 8.88360 1990 ft 100 kts 322°
2026-04-26 17:35 54.72208 8.87658 1993 ft 101 kts 323°
2026-04-26 17:35 54.72764 8.86917 1994 ft 101 kts 322°
2026-04-26 17:35 54.73327 8.86173 1984 ft 102 kts 322°
2026-04-26 17:35 54.73883 8.85433 1988 ft 100 kts 322°
2026-04-26 17:36 54.74436 8.84698 1991 ft 100 kts 322°
2026-04-26 17:36 54.74986 8.83961 1994 ft 101 kts 322°
2026-04-26 17:36 54.75532 8.83208 1997 ft 101 kts 323°
2026-04-26 17:36 54.76106 8.82477 2002 ft 103 kts 323°
2026-04-26 17:37 54.76678 8.81744 1994 ft 101 kts 323°
2026-04-26 17:37 54.77232 8.81008 1998 ft 99 kts 322°
2026-04-26 17:37 54.77778 8.80289 1991 ft 100 kts 322°
2026-04-26 17:38 54.78895 8.78845 1992 ft 99 kts 322°
2026-04-26 17:38 54.79446 8.78127 1989 ft 98 kts 322°
2026-04-26 17:38 54.79990 8.77429 1994 ft 97 kts 322°
2026-04-26 17:38 54.80532 8.76736 1992 ft 97 kts 323°
2026-04-26 17:39 54.81078 8.76040 1993 ft 97 kts 323°
2026-04-26 17:39 54.81630 8.75354 1995 ft 97 kts 322°
2026-04-26 17:39 54.82154 8.74626 1990 ft 95 kts 320°
2026-04-26 17:39 54.82672 8.73913 1992 ft 95 kts 321°
2026-04-26 17:40 54.83156 8.73137 1998 ft 97 kts 315°
2026-04-26 17:40 54.83479 8.72571 1999 ft 98 kts 316°
2026-04-26 17:40 54.84111 8.71473 2002 ft 96 kts 314°
2026-04-26 17:40 54.84586 8.70673 2006 ft 95 kts 316°
2026-04-26 17:41 54.85065 8.69884 2001 ft 95 kts 316°
2026-04-26 17:41 54.85545 8.69097 2001 ft 94 kts 316°
2026-04-26 17:41 54.86005 8.68313 1996 ft 92 kts 315°
2026-04-26 17:41 54.86449 8.67542 1994 ft 89 kts 316°
2026-04-26 17:42 54.86900 8.66810 1989 ft 88 kts 317°
2026-04-26 17:42 54.87342 8.66063 2003 ft 89 kts 315°
2026-04-26 17:42 54.87791 8.65304 2000 ft 91 kts 317°
2026-04-26 17:42 54.88236 8.64531 1997 ft 89 kts 315°
2026-04-26 17:43 54.88560 8.63633 1999 ft 87 kts 303°
2026-04-26 17:43 54.88776 8.62648 1995 ft 87 kts 294°
2026-04-26 17:43 54.88892 8.61626 1996 ft 88 kts 277°
2026-04-26 17:43 54.88882 8.60552 1990 ft 91 kts 276°
2026-04-26 17:44 54.88840 8.59460 2002 ft 91 kts 275°
2026-04-26 17:44 54.88813 8.58364 2004 ft 91 kts 275°
2026-04-26 17:44 54.88784 8.57269 2000 ft 92 kts 275°
2026-04-26 17:44 54.88765 8.56147 1998 ft 91 kts 276°
2026-04-26 17:45 54.88592 8.55094 1997 ft 93 kts 260°
2026-04-26 17:45 54.88453 8.54021 1997 ft 92 kts 269°
2026-04-26 17:45 54.88308 8.52920 2004 ft 95 kts 265°
2026-04-26 17:45 54.88159 8.51788 2012 ft 98 kts 266°
2026-04-26 17:46 54.88017 8.50600 1990 ft 101 kts 268°
2026-04-26 17:46 54.87865 8.49355 1936 ft 109 kts 264°
2026-04-26 17:46 54.87702 8.48035 1817 ft 114 kts 267°
2026-04-26 17:46 54.87570 8.46646 1639 ft 117 kts 269°
2026-04-26 17:47 54.87448 8.45233 1498 ft 121 kts 269°
2026-04-26 17:47 54.87372 8.44244 1406 ft 123 kts 268°
2026-04-26 17:47 54.87205 8.42293 1222 ft 125 kts 267°
2026-04-26 17:47 54.87098 8.40796 1090 ft 125 kts 270°
2026-04-26 17:48 54.87159 8.39323 914 ft 119 kts 299°
2026-04-26 17:48 54.87766 8.38424 787 ft 116 kts 327°
2026-04-26 17:48 54.88439 8.37632 655 ft 117 kts 324°
2026-04-26 17:48 54.89075 8.36811 433 ft 105 kts 324°
2026-04-26 17:49 54.89607 8.36169 253 ft 83 kts 327°
2026-04-26 17:49 54.90063 8.35607 176 ft 82 kts 326°
2026-04-26 17:49 54.90511 8.35031 114 ft 71 kts 327°
2026-04-26 17:49 54.90860 8.34612 68 ft 51 kts 328°
2026-04-26 17:50 54.91105 8.34315 56 ft 39 kts 325°
2026-04-26 17:50 54.91291 8.34079 54 ft 24 kts 304°
2026-04-26 17:50 54.91249 8.33788 51 ft 36 kts 246°
2026-04-26 17:50 54.91110 8.33398 51 ft 38 kts 234°
2026-04-26 17:51 54.91012 8.33103 53 ft 23 kts 249°
2026-04-26 17:51 54.91059 8.32910 53 ft 19 kts 313°
2026-04-26 17:51 54.91172 8.32692 53 ft 24 kts 313°
2026-04-26 17:51 54.91197 8.32569 53 ft 11 kts 258°
2026-04-26 17:52 54.91192 8.32554 53 ft 0 kts 238°